Location: Shepherdstown, WV
(39.4326°N, 77.8042°W)
Time: 05:56:35
(UTC-04:00)

Vanguard 3 - Pass Details

Date: 10 August 2021
Orbit: 510 x 3260 km, 33.3° (Epoch: 21 September)

Event Time Altitude Azimuth Distance (km) Brightness Sun altitude
Rises 15:45:26 0° 229° (SW) 3,765 11.2 49.5°
Reaches altitude 10° 15:47:44 10° 222° (SW) 3,082 10.9 49.1°
Maximum altitude 15:55:12 45° 152° (SSE) 2,186 9.8 47.8°
Drops below altitude 10° 16:08:00 10° 87° (E) 5,203 10.9 45.5°
Sets 16:13:11 0° 82° (E) 6,598 11.4 44.6°
